Back to catalog

STRIX-5

AliveScienceVLEO
NORAD 65971·PAYLOAD·🇯🇵 Japan

Launched Oct 14, 2025 from Rocket Lab Launch Complex 1

Loading…

Next Passes (next 24 hours)

TLE

FreshSource: Space-Track

Epoch: Sep 14, 2026, 02:45 UTC

1 65971U 25229A   26257.11504667  .00003505  00000-0  25272-3 0  9994
2 65971  41.9274 154.0702 0037449 275.9786  83.6773 15.04974839 50376

Track STRIX-5 in real time with AllMySat

Download on the App Store